Location: Kershaw
(34.5481°N, 80.5823°W)
Time: 15:42:32
(UTC+00:00)

Courier 1B Rocket - Pass Details

Date: 02 October 2022
Orbit: 920 x 1202 km, 28.2° (Epoch: 08 December)

Event Time Altitude Azimuth Distance (km) Brightness Sun altitude
Rises 21:54:39 0° 206° (SSW) 3,876 8.8 13.5°
Reaches altitude 10° 21:58:59 10° 182° (S) 2,855 7.7 12.6°
Maximum altitude 22:02:21 14° 153° (SSE) 2,517 7.1 11.9°
Drops below altitude 10° 22:05:37 10° 123° (ESE) 2,759 7.0 11.3°
Sets 22:09:39 0° 100° (E) 3,654 7.4 10.4°
